STARLINK-1667, 46155

Orbit data source: Space-Track

STARLINK-1667, 46155 is a payload satellite owned by SpaceX/Seattle (US) in LEO that was launched on Tue, 18 Aug 2020 UTC via an FALCON 9 launch vehicle from the Air Force Eastern Test Range (AFETR). Payload-class satellites include a variety of spacecraft equipped with specific instruments for various scientific and technological missions. These include communications satellites like Starlink; space stations such as the ISS; scientific satellites like the Hubble; Earth observation satellites from companies like Planet Labs, Umbra, and HawkEye 360; GPS; miniature CubeSats for education and research; and military/defense satellites.

Not visible in the next 10 days
Identifier
46155, 2020-057AQ
Orbit
LEO
Country
Flag of USUS
Related business
Manufacturer
SpaceX/Seattle
Mission
Partially operational Commercial Communications
Bus & Motor
STARLINK, Unknown motor
Mass
260 kg wet, ~248 kg dry
Launch date (UTC)
2020-08-18 (6 years ago)
Launch vehicle
FALCON 9
Launch site
Air Force Eastern Test Range (AFETR)
Object type
Payload
Rocket body
Debris
Shape & HBR
Box + 1 Pan, 10.1 m
Radar Cross Section
13.562 m², Large (>1 m²)

Expand to show TLE details & history
Last TLE update: 2 days ago

TLE from 2 days ago
0 STARLINK-1667
1 46155U 20057AQ  26171.50003471  .00504285  12154-3  96967-3 0  9992
2 46155  53.0075  70.2199 0004819 185.9015 196.9676 15.99917136  6058
Epoch: 2026-06-20T12:00Z
TLE epoch observation values (Epoch: 2026-06-20T12:00:02.998Z)
Latitude
18.10361°
Longitude
-4.33116°
Altitude
278.049 km
Speed
7.742 km/s
True Right ascension
05h 37m 34s
True Declination
17° 59' 42"
Sunlit
Object was in daylight at epoch
Visualization orbit readout
Latitude
Unknown
Longitude
Unknown
Altitude
Unknown
Speed
Unknown
Apparent Right ascension
Unknown
Apparent Declination
Unknown
Sunlit
N/A
Visualization observer readout
Local Sidereal Time
21:36:14
Azimuth
Unknown
Elevation
Unknown
Doppler factor
Unknown
Orbital elements
Apogee altitude
278.144 km
Perigee altitude
271.732 km
Semi-major axis
6,653.075 km
Eccentricity
0.00048
Inclination
53.0075°
RAAN
70.2199°
Arg. of periapsis
185.9015°
True anomaly
196.95149°
Mean anomaly
196.9676°
Eccentric anomaly
196.95955°
Mean motion
3.99954 °/min
Orbital period
90.01 mins
BSTAR
0.00096967
Loading maneuver chart data...
Computing Atmospheric mass density...

Documentation

Showing up to 5 results
|